Theta_e
300 301 301 301 302 301 297 291 284 295 298 283 282 277 285 291 289 291 288 288 286 282 283 282 281 283 287 293 294 289 292 285 280 287 293 296 291 289 288 278 280 285 283 278
300 301 301 301 302 301 294 289 287 294 295 277 276 284 287 289 287 287 286 285 288 286 282 275 279 285 292 294 292 291 293 286 281 283 287 292 289 291 292 290 287 284 280 279
300 300 301 301 302 302 293 287 280 285 288 285 283 282 284 284 289 288 288 287 285 282 276 281 278 283 290 293 293 298 296 287 283 278 283 287 286 289 291 289 283 281 281 281
299 300 300 300 301 302 293 284 281 286 277 281 282 283 285 283 282 287 287 283 284 281 273 278 277 285 288 292 294 292 290 283 285 288 288 288 285 288 288 287 286 281 281 280
299 299 299 300 301 301 291 280 284 284 282 287 282 283 283 282 283 283 282 282 285 283 280 281 280 284 286 285 290 288 291 284 285 283 287 286 283 285 286 287 286 284 282 280
299 299 299 300 301 299 290 290 289 285 285 282 279 280 282 283 285 287 287 286 284 282 284 288 289 289 289 290 288 287 286 285 283 279 285 285 278 282 283 284 285 286 281 283
299 298 299 300 300 300 293 291 289 283 278 281 281 286 285 285 286 284 288 287 284 288 292 292 292 290 291 291 292 293 287 285 285 280 283 273 281 287 286 283 285 285 285 283
298 298 299 299 300 300 295 293 289 284 277 284 286 286 286 286 286 285 287 288 289 291 289 285 283 283 284 288 291 290 291 288 282 280 279 281 281 282 281 282 280 286 283 285
299 299 299 299 300 300 294 293 293 287 281 281 289 284 285 280 280 282 286 290 290 289 285 281 278 278 281 282 285 291 290 289 284 282 276 272 278 283 286 287 276 286 285 283
299 299 299 299 300 301 295 292 293 288 280 286 287 283 282 286 283 281 283 285 286 287 278 278 277 278 286 280 280 281 281 282 278 280 277 278 281 285 289 277 277 286 285 283
299 299 299 300 300 301 295 292 294 289 282 285 291 292 285 286 284 277 283 281 283 281 278 278 278 279 283 282 285 283 281 279 276 279 275 272 284 284 280 283 286 286 286 285
299 299 299 300 300 300 298 290 296 294 286 285 291 292 293 292 290 285 285 287 286 284 278 282 281 280 281 281 275 287 278 281 278 279 277 284 285 285 286 286 284 283 283 286
299 299 299 299 299 300 298 294 291 288 283 284 286 289 294 296 294 293 284 286 290 286 288 285 284 281 283 279 282 282 286 288 279 279 283 283 284 285 286 285 285 283 282 283
299 299 299 299 299 300 297 289 291 289 289 278 288 298 293 297 296 294 292 291 291 288 286 283 285 281 286 282 285 280 283 285 281 281 283 283 284 285 285 283 283 282 282 282
299 298 298 298 299 299 295 292 292 292 287 283 284 290 297 297 295 293 292 291 287 284 282 279 280 283 284 284 285 279 283 281 281 278 284 283 283 285 285 281 280 281 280 279
298 298 297 297 298 297 290 281 290 293 291 286 278 289 292 295 293 292 290 290 287 285 283 281 284 289 283 278 278 283 285 286 286 283 286 285 285 284 283 280 280 280 279 279
298 298 297 296 297 291 287 283 295 297 295 287 280 283 291 294 293 292 287 288 286 285 283 282 282 284 285 273 274 283 285 286 286 286 285 283 284 280 284 281 280 280 278 277
297 297 296 297 298 294 287 296 300 299 291 289 280 278 283 290 283 282 286 284 284 284 283 283 282 284 282 275 282 284 285 286 285 284 286 284 282 281 281 280 279 276 275 275
297 296 297 291 289 285 288 299 300 298 291 283 283 276 272 288 288 284 286 286 279 284 280 282 282 278 278 281 282 282 284 283 283 284 284 280 278 277 277 277 276 274 273 273
297 291 287 283 289 297 299 293 289 288 289 288 284 281 280 285 281 279 283 283 277 275 280 283 277 279 284 287 286 284 284 284 284 280 278 277 276 276 275 274 274 273 272 272
287 285 285 292 296 292 288 283 283 284 281 284 285 282 278 286 277 277 281 276 277 273 278 276 273 278 279 282 281 281 281 282 280 281 281 279 277 275 274 273 273 273 272 270
288 290 294 294 289 285 282 279 282 280 278 280 278 281 285 281 286 280 281 277 276 274 279 276 269 275 280 280 279 279 279 279 278 278 278 277 276 275 274 273 272 271 270 267
291 288 285 284 283 278 276 275 279 272 277 279 279 278 286 284 282 276 280 276 270 278 277 272 274 279 280 279 279 277 277 276 275 275 276 275 274 275 274 271 270 269 266 263
280 280 276 277 276 277 275 277 277 280 279 282 280 278 284 283 278 278 271 275 279 276 271 272 273 279 279 279 277 276 273 273 273 271 270 269 268 266 265 263 262 261 258 256
280 281 272 277 278 279 283 285 282 280 283 283 280 279 279 276 280 282 277 278 276 274 271 273 277 277 276 274 274 271 269 268 267 266 265 263 263 264 260 258 259 259 256 256
281 280 275 281 282 283 284 283 285 281 281 279 281 277 274 278 278 278 277 276 270 272 273 271 275 275 274 272 272 270 269 267 266 265 265 265 263 264 263 259 259 257 258 257
279 278 282 282 281 283 284 285 285 287 282 274 278 272 274 278 276 277 281 271 272 280 277 273 274 273 271 270 270 269 268 266 266 265 266 265 265 264 266 264 262 263 264 259
Wind_Speed
14 11 9 6 4 3 3 2 2 1 4 4 1 2 4 2 1 6 4 2 5 6 4 5 4 6 8 12 11 7 3 2 7 6 10 2 2 2 4 5 1 4 4 3
13 11 9 6 5 4 3 3 1 3 5 3 2 4 3 2 2 1 2 3 6 4 2 2 5 7 10 14 10 4 2 1 5 1 4 5 3 2 2 9 3 1 4 4
13 10 9 6 6 5 4 3 3 4 3 2 4 1 2 4 1 1 3 5 2 4 3 5 6 5 9 17 7 13 4 3 5 3 4 3 4 8 5 7 4 6 10 7
12 9 8 6 6 5 4 2 3 5 3 3 3 3 1 3 3 2 3 4 3 2 4 7 3 5 11 9 6 7 3 6 8 2 3 13 10 9 11 13 10 4 8 8
13 10 6 5 7 5 3 4 3 3 2 6 4 1 2 1 4 3 6 2 9 2 3 6 10 8 3 6 10 6 6 3 7 13 17 22 21 25 21 17 14 13 14 9
13 10 7 6 7 5 1 2 2 4 2 3 5 4 3 2 3 6 4 2 4 6 5 11 18 13 11 13 5 6 5 3 3 3 7 1 16 16 22 21 18 7 5 6
13 10 7 7 5 4 2 1 2 4 1 2 4 5 2 3 4 3 3 5 4 6 14 13 7 7 6 5 5 6 6 6 2 2 7 7 4 9 19 22 16 15 10 11
12 11 8 7 3 2 2 1 2 2 3 2 7 7 3 4 6 4 2 5 5 9 7 5 6 5 7 5 1 10 3 4 4 1 6 8 8 10 6 6 12 11 11 4
12 11 9 6 4 2 3 1 1 3 5 3 6 3 3 2 4 7 3 5 6 7 3 4 4 3 4 5 10 8 7 11 4 1 5 4 4 17 11 6 8 11 11 12
13 11 9 6 5 4 3 1 2 4 4 3 2 3 1 1 2 1 3 7 8 5 4 4 4 3 3 4 7 8 5 4 7 6 4 4 14 17 7 3 3 7 9 10
14 12 10 7 6 5 3 1 3 4 3 4 3 3 1 3 3 2 5 5 6 5 6 3 3 3 3 2 4 4 7 5 5 4 5 4 18 5 6 5 7 8 8 8
14 13 10 9 8 6 3 3 3 3 4 4 2 6 6 5 4 4 3 1 2 2 3 2 2 3 3 4 3 6 5 3 3 6 4 4 6 11 9 6 5 5 7 5
15 12 12 10 8 7 5 3 2 4 3 4 3 3 2 4 6 5 4 3 1 3 3 1 1 2 2 3 2 3 3 1 4 3 4 8 7 8 7 6 6 8 10 11
15 13 11 10 10 8 6 3 1 4 2 3 3 4 2 3 4 4 4 3 2 1 2 1 1 1 0 1 2 4 2 4 3 4 7 8 8 7 5 8 10 11 13 12
17 14 12 11 10 9 5 2 1 1 3 2 4 7 2 2 2 3 3 2 2 2 3 2 1 2 3 2 3 3 3 2 0 2 7 5 5 6 6 9 10 10 11 12
17 15 13 10 8 7 4 4 3 2 3 1 2 4 3 3 2 2 2 1 1 2 2 2 3 3 4 2 2 3 5 7 0 4 7 11 7 5 6 11 11 12 12 11
17 15 11 9 7 3 3 4 1 3 2 1 3 3 2 1 1 2 3 3 1 2 1 1 1 2 3 3 3 7 6 6 7 8 9 7 4 3 7 13 13 15 13 11
17 14 10 7 9 5 3 2 1 4 3 1 1 3 3 1 2 2 1 2 3 2 2 3 0 3 2 2 8 10 9 9 8 7 7 8 10 11 14 12 11 12 10 9
17 14 12 5 3 2 2 6 6 3 1 1 1 3 4 1 2 0 2 1 1 2 1 2 3 3 0 3 9 11 12 9 10 9 9 10 12 10 10 11 10 11 8 7
17 4 2 3 3 6 7 2 2 1 1 1 3 2 2 3 2 1 1 2 2 0 5 1 3 1 2 2 5 7 8 11 11 11 8 9 7 9 9 10 9 8 7 7
2 3 2 1 10 2 1 3 2 3 3 3 4 4 3 2 3 3 2 2 1 1 4 4 2 2 1 7 10 9 10 9 7 6 7 7 12 11 10 9 9 8 8 6
6 4 2 2 2 2 3 3 3 4 5 3 4 4 4 1 3 3 0 2 3 3 0 4 3 2 7 11 11 10 10 12 12 11 13 11 11 10 10 9 8 7 7 5
3 2 2 3 1 4 4 6 3 2 4 4 2 1 3 2 4 3 2 1 4 1 2 4 3 5 7 10 11 10 10 12 12 12 12 12 11 9 10 9 7 7 5 3
3 3 5 4 4 4 5 5 5 5 4 5 4 2 3 2 4 1 4 5 1 2 2 6 4 10 11 9 9 12 8 8 10 9 8 8 8 7 6 6 5 6 4 3
2 1 3 4 3 3 1 1 1 2 4 5 4 4 4 1 3 2 3 0 3 5 6 4 6 11 12 10 9 10 9 8 7 5 7 7 7 7 5 3 5 4 4 4
2 1 2 2 1 2 1 2 1 2 4 3 4 3 4 2 3 3 5 4 6 6 3 2 8 11 9 10 9 8 8 8 7 6 7 7 7 7 6 3 4 4 5 5
1 2 0 1 2 1 2 1 2 1 4 3 3 4 7 2 2 4 5 6 4 2 2 2 5 11 10 8 9 9 9 8 8 6 6 5 4 4 4 5 5 6 6 5
Wind_Direction
146 142 157 127 110 102 97 110 93 313 75 54 70 141 207 253 90 64 33 50 246 239 284 304 296 297 292 304 310 319 350 304 272 219 340 14 7 118 126 111 233 120 78 62
148 155 134 105 94 91 129 119 155 358 92 128 319 293 0 1 64 51 28 256 232 231 210 308 224 287 277 293 318 310 243 255 320 69 359 326 327 355 57 93 47 165 78 87
152 145 131 102 83 90 91 89 87 336 41 195 135 80 15 1 45 348 247 247 335 338 299 221 283 299 307 318 300 334 174 49 323 254 277 246 244 227 206 113 49 51 74 108
149 146 118 104 68 76 87 74 233 188 222 303 146 111 269 33 355 259 281 312 294 3 318 332 287 276 314 308 317 353 72 4 328 178 51 71 22 94 104 96 90 42 99 96
148 141 128 97 69 80 81 131 139 11 182 158 140 173 186 151 302 210 284 302 298 357 264 183 299 305 328 273 332 1 330 24 6 42 61 68 59 49 65 83 99 109 112 96
148 145 139 100 65 91 99 298 322 112 282 129 104 219 190 244 326 293 9 338 340 328 261 286 284 267 248 258 293 309 336 335 11 61 322 243 48 52 58 60 41 24 48 84
150 147 131 99 78 127 128 247 94 82 269 114 199 149 121 336 340 257 342 355 22 278 300 296 270 252 241 245 242 244 326 335 140 11 340 53 83 39 72 63 45 42 82 97
149 143 131 104 94 101 91 343 94 100 70 302 22 57 33 31 336 12 84 350 282 304 316 359 346 340 5 327 61 23 268 294 66 69 50 137 60 19 346 34 50 39 43 90
148 140 132 121 108 57 72 286 149 98 113 340 305 91 26 64 327 346 330 321 327 6 30 42 7 17 325 335 339 35 16 31 74 21 62 69 17 330 314 268 55 23 40 37
146 146 140 132 109 118 113 319 49 86 101 281 7 91 167 46 29 281 319 337 334 27 13 47 23 348 11 11 357 344 352 8 31 24 91 89 353 328 305 71 32 23 52 53
148 145 142 127 101 122 103 252 11 107 115 283 3 349 56 11 79 117 288 26 347 9 44 39 332 349 337 30 36 1 17 358 20 356 53 14 355 29 53 86 57 38 57 82
147 146 138 121 103 112 92 77 2 49 102 237 300 261 220 188 177 140 355 193 6 201 63 339 58 357 341 341 7 5 40 24 67 20 86 72 21 59 64 66 90 51 49 73
148 143 140 127 111 90 98 102 2 54 56 325 6 295 42 148 207 161 112 323 311 11 182 210 266 30 15 354 36 79 66 66 86 105 94 93 79 65 48 35 85 68 52 58
145 146 140 133 121 108 87 98 211 87 105 107 294 335 34 170 130 153 163 181 358 68 83 180 315 347 46 358 104 91 337 8 93 78 122 110 85 81 69 59 70 73 62 60
151 148 144 138 130 111 87 90 238 131 117 172 288 311 263 143 113 171 156 133 75 44 15 39 256 266 29 6 66 56 8 6 215 139 136 95 100 101 72 83 75 69 78 71
149 146 147 144 143 119 74 26 323 196 106 66 67 304 267 179 199 178 199 188 107 118 142 242 274 260 102 90 100 113 65 41 257 118 91 102 115 96 115 106 96 84 74 76
146 145 148 151 155 83 106 167 54 165 101 80 351 346 310 344 50 33 43 21 19 114 282 274 222 299 89 96 150 136 106 94 92 105 106 101 126 124 110 107 98 91 80 66
141 139 138 125 122 50 18 327 12 120 92 357 35 280 5 17 31 4 23 32 16 325 231 328 256 343 69 88 143 145 135 126 106 88 80 102 83 70 106 104 103 91 86 80
135 130 114 71 55 92 214 188 113 66 70 198 221 134 232 26 117 108 26 128 311 280 216 261 85 326 80 221 159 152 163 169 147 128 111 97 99 98 99 105 101 99 91 82
126 93 91 157 196 188 122 53 91 115 255 282 252 99 211 119 58 304 87 314 227 13 250 62 78 143 22 15 145 161 166 145 146 140 129 123 112 109 100 93 89 96 104 93
69 124 197 129 161 86 74 118 177 156 228 195 223 190 161 285 113 202 177 199 271 30 271 114 292 177 84 86 83 82 84 98 82 114 127 118 128 129 120 109 105 102 98 93
175 158 155 114 152 112 149 167 154 205 221 190 163 205 182 262 117 99 228 135 31 245 264 71 287 227 140 111 100 92 95 93 82 89 104 112 116 119 115 115 110 100 101 99
58 54 120 137 130 168 194 160 184 221 197 192 148 120 135 49 49 47 117 171 231 7 45 229 218 146 127 124 116 98 98 99 98 91 97 105 106 108 118 118 117 120 103 78
102 151 143 181 176 219 193 189 185 227 137 134 113 67 114 111 59 127 98 239 74 269 250 242 194 159 142 131 126 122 118 111 111 108 105 103 105 97 87 108 123 127 141 180
71 277 209 209 242 217 215 275 305 283 130 114 75 45 92 349 108 214 207 240 240 209 229 219 160 144 138 139 135 130 131 128 123 123 118 123 125 126 132 164 158 145 147 166
28 289 333 297 286 183 227 25 293 271 125 75 64 121 80 158 153 165 204 207 225 244 217 178 130 145 148 141 142 137 133 135 138 137 142 141 146 156 168 158 170 187 174 188
256 283 116 269 276 277 338 99 237 236 85 149 122 115 196 126 180 205 194 212 222 158 118 125 144 154 149 136 131 135 139 142 147 145 151 162 160 138 143 184 224 207 209 206